Location: Newark
(30.1997°N, 31.2053°E)
Time: 08:56:48
(UTC+00:00)

N. Korean satellite - Visible Passes

Search period start: 20 September 2020 00:00
Search period end: 30 September 2020 00:00
Orbit: 455 x 503 km, 97.2° (Epoch: 19 September)

Date Brightness Start Highest point End Pass type
(mag) Time Alt. Az. Time Alt. Az. Time Alt. Az.
20 Sep 8.7 02:53:46 10° NE 02:57:02 31° E 03:00:14 10° SSE visible
21 Sep 9.9 02:29:04 10° ENE 02:30:55 13° E 02:32:45 10° SE visible
23 Sep 7.5 03:08:49 10° NNE 03:12:22 53° E 03:15:51 10° S visible
24 Sep 9.4 02:43:27 10° NE 02:46:18 22° E 02:49:06 10° SSE visible
27 Sep 8.4 02:58:18 10° NNE 03:01:38 36° E 03:04:54 10° SSE visible
28 Sep 9.8 02:33:21 10° ENE 02:35:31 15° E 02:37:40 10° SE visible
